This is the latest recevied weather packets stored in our database for station/object VE8SKI. If no packets are shown the sender has not sent any weather packets the latest 10 day(s).
| Time | Temp. | Humidity | Pressure | Rain* | Wind** | Luminosity | Snow |
|---|---|---|---|---|---|---|---|
| 1777315175 | -1.67° C | 64% | 1020.3 hPa | 0 mm | 2.24 m/s, 204° | - | - |
| 1777314875 | -1.11° C | 64% | 1020.3 hPa | 0 mm | 0.89 m/s, 200° | - | - |
| 1777314576 | -1.67° C | 63% | 1020.3 hPa | 0 mm | 1.34 m/s, 218° | - | - |
| 1777314276 | -1.67° C | 65% | 1020.4 hPa | 0 mm | 0.89 m/s, 359° | - | - |
| 1777313974 | -1.67° C | 63% | 1020.5 hPa | 0 mm | 1.79 m/s, 177° | - | - |
| 1777313674 | -2.22° C | 64% | 1020.5 hPa | 0 mm | 1.79 m/s, 259° | - | - |
| 1777313375 | -1.67° C | 64% | 1020.6 hPa | 0 mm | 1.79 m/s, 177° | - | - |
| 1777313075 | -1.67° C | 65% | 1020.7 hPa | 0 mm | 0 m/s | - | - |
| 1777312776 | -2.22° C | 65% | 1020.7 hPa | 0 mm | 0.45 m/s, 0° | - | - |
| 1777312476 | -2.78° C | 67% | 1020.8 hPa | 0 mm | 0 m/s | - | - |
| 1777312174 | -2.78° C | 66% | 1020.8 hPa | 0 mm | 2.24 m/s, 267° | - | - |
| 1777311875 | -2.78° C | 66% | 1020.9 hPa | 0 mm | 2.24 m/s, 184° | - | - |
| 1777311575 | -2.22° C | 67% | 1021 hPa | 0 mm | 0.89 m/s, 121° | - | - |
| 1777311276 | -2.78° C | 66% | 1021.1 hPa | 0 mm | 1.34 m/s, 240° | - | - |
| 1777310976 | -2.78° C | 67% | 1021.2 hPa | 0 mm | 0.45 m/s, 287° | - | - |
| 1777310677 | -3.33° C | 68% | 1021.3 hPa | 0 mm | 0.89 m/s, 267° | - | - |
| 1777310374 | -3.33° C | 68% | 1021.5 hPa | 0 mm | 1.34 m/s, 325° | - | - |
| 1777310075 | -3.33° C | 68% | 1021.6 hPa | 0 mm | 0 m/s | - | - |
| 1777309775 | -3.89° C | 69% | 1021.7 hPa | 0 mm | 1.79 m/s, 167° | - | - |
| 1777309476 | -3.89° C | 69% | 1021.7 hPa | 0 mm | 1.79 m/s, 300° | - | - |
| 1777309176 | -3.89° C | 70% | 1021.8 hPa | 0 mm | 0.89 m/s, 359° | - | - |
| 1777308877 | -3.89° C | 68% | 1021.9 hPa | 0 mm | 1.79 m/s, 262° | - | - |
| 1777308574 | -3.33° C | 69% | 1022 hPa | 0 mm | 0.89 m/s, 240° | - | - |
| 1777308275 | -3.33° C | 69% | 1022.1 hPa | 0 mm | 0.89 m/s, 267° | - | - |
| 1777307975 | -3.33° C | 70% | 1022.2 hPa | 0 mm | 1.34 m/s, 150° | - | - |
* Rain latest hour (hover to see other rain measurements)
** Current wind speed in m/s (hover to see current wind gust speed)